Preview of NWS' New Version of Forecast
This preview is not operational and should not be used for support decisions.

Regional Weather Roundup (RWR)

Issued by National Weather Service (NWS)

                            
000
ASUS46 KPQR 210910
RWROR 

OREGON REGIONAL WEATHER ROUNDUP
NATIONAL WEATHER SERVICE PORTLAND OR
200 AM PDT SUN APR 21 2019

NOTE: "FAIR" INDICATES FEW OR NO CLOUDS BELOW 12,000 FEET WITH
NO SIGNIFICANT WEATHER AND/OR OBSTRUCTIONS TO VISIBILITY.

ORZ001>013-211000-
NORTHWEST OREGON

  
CITY           SKY/WX    TMP DP  RH WIND       PRES   REMARKS
ASTORIA        CLOUDY    50  43  77 SW3       30.24R                  
TILLAMOOK      CLOUDY    50  45  81 CALM      30.26R                  
NEWPORT        CLOUDY    46  43  87 CALM      30.28R                  
PORTLAND       CLEAR     48  42  80 CALM      30.23R                  
VANCOUVER WA   CLEAR     45  41  86 CALM      30.22R                  
SCAPPOOSE      CLEAR     47  42  83 CALM      30.21S                  
HILLSBORO      CLEAR     45  41  86 CALM      30.22R                  
AURORA         CLOUDY    48  44  86 S3        30.23S                  
MCMINNVILLE    PTCLDY    44  42  93 SW6       30.22S                  
SALEM          CLOUDY    48  42  80 SW3       30.22S                  
CORVALLIS      CLEAR     42  40  92 SW5       30.25R                  
EUGENE         CLOUDY    48  43  82 SW3       30.24S                  
$$

ORZ021-028-211000-
SOUTHWEST OREGON

  
CITY           SKY/WX    TMP DP  RH WIND       PRES   REMARKS
NORTH BEND     CLOUDY    49  43  80 CALM      30.28S                  
BROOKINGS      CLEAR     50  38  63 NE9       30.18F                  
ROSEBURG       CLOUDY    50  40  68 NW5       30.24R                  
SEXTON SUMMIT  FOG       35  35 100 N9        30.15R VSB 1/4          
GRANTS PASS    MOCLDY    43  39  87 CALM      30.23R                  
MEDFORD        CLOUDY    47  41  80 N7        30.18R                  
$$

ORZ014>016-041-211000-
COLUMBIA GORGE

  
CITY           SKY/WX    TMP DP  RH WIND       PRES   REMARKS
TROUTDALE      CLOUDY    50  43  77 W7        30.22R                  
HOOD RIVER     CLEAR     48  41  76 MISG      30.15S                  
THE DALLES     CLEAR     53  41  63 NW13      30.11R                  
$$

ORZ029>031-041-044-049-050-061>064-502-503-505>511-211000-
EASTERN OREGON

  
CITY           SKY/WX    TMP DP  RH WIND       PRES   REMARKS
MADRAS         CLEAR     37  34  87 CALM      30.15R                  
REDMOND        CLEAR     37  33  85 S5        30.12R                  
BEND           CLEAR     36  34  93 SW5       30.13S                  
PRINEVILLE     CLEAR     39  34  81 W3        30.12S                  
KLAMATH FALLS  CLEAR     35  31  85 CALM      30.11R                  
LAKEVIEW       CLOUDY    39  36  89 N13       30.08R WCI  31          
HERMISTON      CLEAR     50  41  71 SW6       30.06R                  
PENDLETON      CLEAR     47  39  74 W9        30.05R                  
JOHN DAY       CLEAR     43  38  84 NW7       30.07R                  
MEACHAM        PTCLDY    32  29  88 CALM      30.05R                  
LA GRANDE      PTCLDY    46  40  79 NW13      30.04R                  
BAKER CITY     PTCLDY    44  39  82 NW13      30.01R                  
BURNS          CLEAR     36  32  85 W5        30.03S                  
ROME             N/A     46  39  76 NW6       29.97R                  
ONTARIO        CLOUDY    54  41  61 NW20      29.93S                  
$$